Skip Page Navigation
NASA JPL Caltech
NASA Logo - Jet Propulsion Laboratory + View the NASA Portal
+ Center for Near-Earth Object Studies
JPL Home Earth Solar System Stars & Galaxies Technology
JPL Solar System Dynamics
BODIES ORBITS EPHEMERIDES TOOLS PHYSICAL DATA DISCOVERY FAQ SITE MAP
IMPORTANT: The SSD Announcement email list is now available. Major changes are coming in the near future, including possible hostname and/or URL changes. To be notified of such changes, subscribe to this email list.

Please visit this page for more details.


JPL Small-Body Database Browser
Search: [ help ]  
312479 (2008 TX35)
Classification: Jupiter Trojan          SPK-ID: 2312479
Ephemeris | Orbit Diagram | Orbital Elements | Mission Design | Physical Parameters | Discovery Circumstances ]

[ show orbit diagram ]
Orbital Elements at Epoch 2458600.5 (2019-Apr-27.0) TDB
Reference: JPL 9 (heliocentric ecliptic J2000)
 Element Value Uncertainty (1-sigma)   Units 
e .06468500950847909 7.8738e-08  
a 5.179901100494751 3.1943e-07 au
q 4.844839148556267 4.6363e-07 au
i 2.948170502197241 7.5042e-06 deg
node 278.9518204031084 0.00018963 deg
peri 207.2794784079314 0.00021907 deg
M 214.3959027481884 0.00011914 deg
tp 2460342.113265440386
(2024-Feb-01.61326544)
0.0015612 TDB
period 4306.06547063179
11.79
0.00039831
1.091e-06
d
yr
n .08360300196438501 7.7333e-09 deg/d
Q 5.514963052433235 3.4009e-07 au
  Orbit Determination Parameters
   # obs. used (total)      160  
   data-arc span      4430 days (12.13 yr)  
   first obs. used      2007-08-10  
   last obs. used      2019-09-26  
   planetary ephem.      DE431  
   SB-pert. ephem.      SB431-N16  
   condition code      0  
   norm. resid. RMS      .57933  
   source      ORB  
   producer      Otto Matic  
   solution date      2019-Nov-08 08:11:19  

Additional Information
 Earth MOID = 3.86088 au 
 Jupiter MOID = .167791 au 
 T_jup = 2.993 
[ show covariance matrix ]

Ephemeris | Orbit Diagram | Orbital Elements | Mission Design | Physical Parameters | Discovery Circumstances ]

Physical Parameter Table
Parameter Symbol Value Units Sigma Reference Notes
absolute magnitude H 14.0   n/a MPO455303  

312479 (2008 TX35)          Discovered 2008-Oct-01 by Mt. Lemmon Survey at Mount Lemmon
Reference: 20120109/Numbers.arcLast Updated: 2012-01-11
Ephemeris | Orbit Diagram | Orbital Elements | Mission Design | Physical Parameters | Discovery Circumstances ]
ABOUT SSD CREDITS/AWARDS PRIVACY/COPYRIGHT GLOSSARY LINKS
FirstGov 2019-Dec-10 05:28 UT
(server date/time)  
NASA Home Page
Site Manager:   Ryan S. Park
Webmaster  Alan B. Chamberlin